Location: Pensacola
(30.4142°N, 87.2155°W)
Time: 03:59:49
(UTC-06:00)

ISS - Visible Passes

Search period start: 20 February 2018 00:00
Search period end: 02 March 2018 00:00
Orbit: 403 x 407 km, 51.6° (Epoch: 20 February)

Date Brightness Start Highest point End Pass type
(mag) Time Alt. Az. Time Alt. Az. Time Alt. Az.
22 Feb -0.7 05:47:53 10° SSE 05:49:48 15° SE 05:51:43 10° E visible
24 Feb -2.6 05:38:27 10° SSW 05:41:35 44° SE 05:44:43 10° ENE visible
25 Feb -1.2 04:47:01 10° S 04:49:27 19° SE 04:51:53 10° E visible
26 Feb -3.7 05:30:38 13° WSW 05:33:26 53° NW 05:36:40 10° NE visible
27 Feb -3.4 04:41:19 61° ESE 04:41:19 61° ESE 04:44:25 10° NE visible
28 Feb -0.2 03:51:46 10° ENE 03:51:46 10° ENE 03:51:46 10° ENE visible
28 Feb -2.2 05:24:27 18° WNW 05:25:26 20° NW 05:27:57 10° NNE visible
01 Mar -1.8 04:34:42 22° NNE 04:34:42 22° NNE 04:36:08 10° NNE visible
